Location: Conjunto Santa Maria
(19.9513°S, 43.9599°W)
Time: 12:20:52
(UTC+00:00)

SJ-11-01 - Pass Details

Date: 21 January 2021
Orbit: 684 x 700 km, 98.0° (Epoch: 04 March)

Event Time Altitude Azimuth Distance (km) Brightness Sun altitude
Rises 22:26:28 0° 169° (S) 3,104 7.8 -10.6°
Reaches altitude 10° 22:28:45 10° 169° (S) 2,179 7.1 -11.1°
Maximum altitude 22:33:32 88° 258° (WSW) 706 4.3 -12.1°
Drops below altitude 10° 22:38:15 10° 347° (NNW) 2,148 6.7 -13.1°
Sets 22:40:29 0° 347° (NNW) 3,056 7.5 -13.6°
